Regional Weather Roundup
Issued by NWS Jackson, KY

Home | Current Version | Previous Version | Graphics & Text | Print | Product List | Glossary On
Versions: 1 2 3 4 5 6 7 8 9 10 11 12 13 14 15 16 17 18 19 20 21 22 23 24 25 26 27 28 29 30 31 32 33 34 35 36 37 38 39 40 41 42 43 44 45 46 47 48 49 50
899
ASUS43 KJKL 241810
RWRJKL

EAST KENTUCKY HOURLY WEATHER ROUNDUP
NATIONAL WEATHER SERVICE JACKSON KY
100 PM EST SAT FEB 24 2018

NOTE: "FAIR" INDICATES FEW OR NO CLOUDS BELOW 12,000 FEET WITH
NO SIGNIFICANT WEATHER AND/OR OBSTRUCTIONS TO VISIBILITY.

* THESE REPORTS ARE NOT UNDER NWS QUALITY CONTROL AND MAY NOT
  REPORT WEATHER SUCH AS PRECIPITATION AND FOG.

KYZ079-080-083-085-087-088-110-112-115-119-120-241900
...EASTERN KENTUCKY...

CITY           SKY/WX    TMP DP  RH WIND       PRES   REMARKS
JACKSON        LGT RAIN  63  61  93 SW8       30.04S FOG
6HR MIN TEMP:  59; 6HR MAX TEMP:  64; 6HR PCP:  0.44;

LONDON         LGT RAIN  65  62  90 SW9       30.06S
6HR MIN TEMP:  60; 6HR MAX TEMP:  66; 6HR PCP:  0.38;

SOMERSET*      CLOUDY    64  64 100 W8        30.05F
MONTICELLO*    CLOUDY    68  64  87 MISG      30.05F
6HR MIN TEMP:  61; 6HR MAX TEMP:  69;

WILLIAMSBURG*  CLOUDY    66  63  88 SW8G24    30.06F
MIDDLESBORO*   RAIN      65  62  87 S12G18    30.08F
6HR MIN TEMP:  61; 6HR MAX TEMP:  70; 6HR PCP:  0.06;

HARLAN APT*    CLOUDY    68  55  64 S5        30.07F
PIKE CO APT*   CLOUDY    67  62  86 S5        30.04F
BIG SANDY APT* CLOUDY    66  62  88 SW12G20   30.03F
6HR MIN TEMP:  58; 6HR MAX TEMP:  67;

MOREHEAD APT*  LGT RAIN  55  55 100 NW9G18    30.06R
ASHLAND*       LGT RAIN  56  54  93 CALM      30.03F
$$

KYZ035-036-041-042-044-050-067-078-099-241900
...CENTRAL KENTUCKY...

CITY           SKY/WX    TMP DP  RH WIND       PRES   REMARKS
MT STERLING*   CLOUDY    54  54 100 NE7       30.06F
FLEMING/MASON* CLOUDY    50  50  99 NE13      30.06F
DANVILLE*      CLOUDY    55  55 100 N3        30.04F
LEXINGTON      CLOUDY    53  49  86 NE13      30.04F
6HR MIN TEMP:  52; 6HR MAX TEMP:  58; 6HR PCP:  0.28;

FRANKFORT      CLOUDY    52  47  83 NE7       30.04F
6HR MIN TEMP:  51; 6HR MAX TEMP:  55; 6HR PCP:  0.29;

LOUISVILLE     LGT RAIN  54  51  90 E6        30.01F
6HR MIN TEMP:  51; 6HR MAX TEMP:  54; 6HR PCP:  0.21;

LEBANON*       LGT RAIN  54  54 100 NE7       30.02F
GLASGOW*       PTSUNNY   70  65  85 SW12      29.98F
BOWLING GREEN  CLOUDY    71  64  78 S15       29.97F
6HR MIN TEMP:  59; 6HR MAX TEMP:  72; 6HR PCP:  0.10;

$$

KYZ091>093-OHZ055-061-077-WVZ005-015-034-035-042-241900
...SOUTHERN OHIO/WEST VIRGINIA...

CITY           SKY/WX    TMP DP  RH WIND       PRES   REMARKS
COVINGTON      CLOUDY    51  49  92 NE9       30.03F
COLUMBUS       LGT RAIN  49  47  93 VRB3      30.09F
DAYTON         LGT RAIN  47  47 100 E14       30.04F
WILMINGTON     CLOUDY    48  48 100 E12       30.04F
HUNTINGTON     LGT RAIN  56  54  93 N7        30.02S FOG
CHARLESTON     LGT RAIN  62  60  93 CALM      30.00F FOG
BECKLEY        PTSUNNY   65  56  72 SW12G22   30.07F
BLUEFIELD      PTSUNNY   65  53  65 W15G22    30.12F
LOGAN CO APT*  MOCLDY    66  59  77 S6G14     30.04F
$$

VAZ002-007-008-TNZ017-027-036-066-071-241900
...SOUTHWEST VIRGINIA/EAST TENNESSEE...

CITY           SKY/WX    TMP DP  RH WIND       PRES   REMARKS
WISE*          CLOUDY    64  57  77 SW13G18   30.11F
JONESVILLE*      N/A     70  59  68 SW10      30.10F
ABINGDON*      CLOUDY    71  59  66 W8        30.11F
BRISTOL        PTSUNNY   74  61  63 VRB3      30.09F
SEVIERVILLE*   PTCLDY    82  48  30 SW16      30.05F
KNOXVILLE      PTSUNNY   74  57  55 S22G35    30.06F
LAFOLLETTE*    CLOUDY    68  61  77 CALM      30.10F
OAK RIDGE      LGT RAIN  71  62  73 SW8       30.08F
CROSSVILLE     CLOUDY    62  59  90 SW7       30.10F
NASHVILLE      PTSUNNY   76  61  59 S16       29.99F
$$

...KEY TO REMARKS...
VSB - VISIBILITY IN MILES
WCI - WIND CHILL INDEX
HX  - HEAT INDEX

$$




USA.gov is the U.S. government's official web portal to all federal, state and local government web resources and services.